Location: Unspecified
(22.6800°N, 112.2000°E)
Time: 21:50:31
(UTC+08:00)

Explorer 11/Cluster Stage 4 - All Passes

Search period start: 04 August 2021 00:00
Search period end: 14 August 2021 00:00
Orbit: 467 x 1257 km, 28.8° (Epoch: 04 August)

Date Brightness Start Highest point End Pass type
(mag) Time Alt. Az. Time Alt. Az. Time Alt. Az.
04 Aug - 05:06:03 10° SSW 05:10:34 21° SE 05:15:45 10° E visible
04 Aug - 06:52:20 10° WSW 06:59:01 68° SSE 07:06:55 10° ENE daylight
04 Aug - 08:41:02 10° W 08:48:30 66° NNW 08:56:44 10° ENE daylight
04 Aug - 10:30:41 10° WNW 10:38:38 56° N 10:46:35 10° E daylight
04 Aug - 12:20:21 10° WNW 12:28:39 76° NNE 12:36:13 10° ESE daylight
04 Aug - 14:10:16 10° W 14:17:56 51° SSW 14:24:29 10° SE daylight
04 Aug - 16:02:44 10° WSW 16:06:13 14° SW 16:09:26 10° S daylight
05 Aug - 04:54:40 10° SSW 04:59:18 24° SE 05:04:43 10° E visible
05 Aug - 06:41:15 10° WSW 06:47:45 75° SSE 06:55:35 10° ENE daylight
05 Aug - 08:30:01 10° W 08:37:17 62° N 08:45:26 10° ENE daylight
05 Aug - 10:19:31 10° WNW 10:27:24 57° N 10:35:26 10° E daylight
05 Aug - 12:09:02 10° WNW 12:17:22 82° NNE 12:25:07 10° ESE daylight
05 Aug - 13:59:00 10° W 14:06:37 45° SSW 14:13:15 10° SE daylight
05 Aug - 15:52:18 10° WSW 15:54:55 12° SW 15:57:24 10° SSW daylight
06 Aug - 04:43:21 10° SSW 04:48:02 27° SE 04:53:36 10° E visible
06 Aug - 06:30:13 10° WSW 06:36:31 83° SSE 06:44:14 10° ENE daylight
06 Aug - 08:19:01 10° W 08:26:05 59° N 08:34:08 10° ENE daylight
06 Aug - 10:08:23 10° WNW 10:16:10 58° N 10:24:16 10° E daylight
06 Aug - 11:57:46 10° WNW 12:06:05 88° NNE 12:13:58 10° ESE daylight
06 Aug - 13:47:47 10° W 13:55:16 40° SSW 14:01:56 10° SE daylight
06 Aug - 15:42:49 10° SW 15:43:38 10° SW 15:44:27 10° SSW daylight
07 Aug - 04:32:07 10° SSW 04:36:48 31° SSE 04:42:28 10° E visible
07 Aug - 06:19:15 10° WSW 06:25:19 89° NNW 06:32:51 10° ENE daylight
07 Aug - 08:08:02 10° W 08:14:53 56° N 08:22:50 10° ENE daylight
07 Aug - 09:57:15 10° WNW 10:04:56 60° N 10:13:05 10° E daylight
07 Aug - 11:46:31 10° WNW 11:54:46 85° SSW 12:02:47 10° ESE daylight
07 Aug - 13:36:38 10° W 13:43:54 35° SSW 13:50:34 10° SSE daylight
08 Aug - 04:20:58 10° SW 04:25:36 36° SSE 04:31:18 10° E visible
08 Aug - 06:08:18 10° WSW 06:14:09 81° NNW 06:21:29 10° ENE daylight
08 Aug - 07:57:05 10° W 08:03:43 54° N 08:11:31 10° ENE daylight
08 Aug - 09:46:09 10° WNW 09:53:41 62° N 10:01:53 10° E daylight
08 Aug - 11:35:17 10° WNW 11:43:26 78° SSW 11:51:32 10° ESE daylight
08 Aug - 13:25:32 10° W 13:32:32 31° SSW 13:39:05 10° SSE daylight
09 Aug - 04:09:51 10° SW 04:14:25 41° SSE 04:20:06 10° E visible
09 Aug - 05:57:24 10° W 06:03:01 73° NNW 06:10:07 10° ENE daylight
09 Aug - 07:46:09 10° WNW 07:52:34 53° N 08:00:12 10° ENE daylight
09 Aug - 09:35:03 10° WNW 09:42:27 65° NNE 09:50:38 10° E daylight
09 Aug - 11:24:05 10° WNW 11:32:06 71° SSW 11:40:13 10° ESE daylight
09 Aug - 13:14:30 10° W 13:21:10 27° SSW 13:27:32 10° SSE daylight
10 Aug - 03:58:48 10° SW 04:03:16 47° SSE 04:08:52 10° E visible
10 Aug - 05:46:31 10° W 05:51:55 66° NNW 05:58:44 10° ENE daylight
10 Aug - 07:35:13 10° WNW 07:41:26 51° N 07:48:55 10° ENE daylight
10 Aug - 09:23:58 10° WNW 09:31:12 69° NNE 09:39:24 10° E daylight
10 Aug - 11:12:56 10° WNW 11:20:45 63° SSW 11:28:52 10° SE daylight
10 Aug - 13:03:35 10° W 13:09:48 24° SSW 13:15:52 10° SSE daylight
11 Aug - 02:03:45 10° SSE 02:04:28 10° SE 02:05:13 10° SE night (unlit)
11 Aug - 03:47:48 10° SW 03:52:10 55° SSE 03:57:38 10° ENE visible
11 Aug - 05:35:41 10° W 05:40:51 60° N 05:47:23 10° ENE visible
11 Aug - 07:24:18 10° WNW 07:30:19 51° N 07:37:37 10° ENE daylight
11 Aug - 09:12:54 10° WNW 09:19:58 73° NNE 09:28:07 10° E daylight
11 Aug - 11:01:50 10° WNW 11:09:24 56° SSW 11:17:27 10° SE daylight
11 Aug - 12:52:47 10° WSW 12:58:27 20° SSW 13:04:03 10° S daylight
12 Aug - 01:51:35 10° S 01:53:21 13° SE 01:55:14 10° ESE night (unlit)
12 Aug - 03:36:51 10° WSW 03:41:06 64° SSE 03:46:25 10° ENE visible
12 Aug - 05:24:52 10° W 05:29:48 54° N 05:36:03 10° ENE visible
12 Aug - 07:13:24 10° WNW 07:19:12 50° N 07:26:19 10° E daylight
12 Aug - 09:01:51 10° WNW 09:08:43 79° NNE 09:16:48 10° ESE daylight
12 Aug - 10:50:46 10° W 10:58:04 49° SSW 11:05:58 10° SE daylight
12 Aug - 12:42:10 10° WSW 12:47:07 17° SSW 12:52:05 10° S daylight
13 Aug - 01:39:58 10° S 01:42:15 15° SSE 01:44:43 10° ESE night (unlit)
13 Aug - 03:25:56 10° WSW 03:30:03 76° SSE 03:35:11 10° ENE visible
13 Aug - 05:14:04 10° W 05:18:47 50° N 05:24:44 10° ENE visible
13 Aug - 07:02:30 10° WNW 07:08:06 51° N 07:15:02 10° E daylight
13 Aug - 08:50:49 10° WNW 08:57:29 85° NNE 09:05:27 10° ESE daylight
13 Aug - 10:39:46 10° W 10:46:44 43° SSW 10:54:24 10° SE daylight
13 Aug - 12:31:48 10° WSW 12:35:48 14° SSW 12:39:51 10° S daylight
